Terminal Aerodrome Forecast
Issued by NWS

Home | Current Version | Previous Version | Text Only | Print | Product List | Glossary On
Versions: 1 2 3 4 5 6 7 8 9 10 11 12 13 14 15
000
FTUS44 KBMX 192300
TAFEET
TAF
KEET 192327Z 2000/2024 09003KT P6SM FEW250
     FM201500 10006KT P6SM BKN030
     FM201800 10005KT P6SM BKN040=

USA.gov is the U.S. government's official web portal to all federal, state and local government web resources and services.